La Crosse, WI

6:55 PM CDT on May 27, 2018 (GMT -0500)
La Crosse Municipal

Weather History for KLSE - June, 2013

Change the Weather History Date:

Friday, June 28, 2013

  Actual Average Record
Temperature  
Mean Temperature 71 °F 73 °F  
Max Temperature 78 °F 83 °F 100 °F (1931)
Min Temperature 63 °F 62 °F 45 °F (1968)
Degree Days  
Heating Degree Days 0 0  
Month to date heating degree days 44 38  
Since 1 June heating degree days 44  
Since 1 July heating degree days 7471 7195  
Cooling Degree Days 6 8  
Month to date cooling degree days 146 150  
Year to date cooling degree days 206 198  
Since 1 June cooling degree days 146  
Growing Degree Days 21 (Base 50)    
Moisture  
Dew Point 61 °F    
Average Humidity 72    
Maximum Humidity 87    
Minimum Humidity 57    
Precipitation  
Precipitation 0.04 in 0.14 in 3.76 in (1942)
Month to date precipitation 5.64 4.04  
Year to date precipitation 24.57 15.11  
Snow  
Snow 0.00 in 0.00 in 0.00 in (2002)
Month to date snowfall 0.0 0.0  
Since 1 June snowfall 0.0  
Since 1 July snowfall 60.6 43.3  
Snow Depth 0.00 in    
Sea Level Pressure  
Sea Level Pressure 29.70 in    
Wind  
Wind Speed 10 mph (NW)    
Max Wind Speed 24 mph    
Max Gust Speed 32 mph    
Visibility 10 miles    
Events Rain , Thunderstorm    
T = Trace of Precipitation, MM = Missing Value Source: NWS Daily Summary

Daily Weather History Graph

Daily Weather History Graph

Search for Another Location

Airport or City:

Astronomy

Jun. 28, 2013 Rise Set
Actual Time 5:25 AM CDT 8:51 PM CDT
Civil Twilight 4:49 AM CDT 9:27 PM CDT
Nautical Twilight 4:01 AM CDT 10:14 PM CDT
Astronomical Twilight 3:01 AM CDT 11:14 PM CDT
Moon No Moon Rise 11:46 AM CDT (6/28)
Length of Visible Light 16h 38m
Length of Day
15h 26m
Waning Gibbous, 66% of the Moon is Illuminated
Jun 28
Waning Gibbous
Jun 29
Last Quarter
Jul 8
New
Jul 15
First Quarter
Jul 22
Full

Hourly Weather History & Observations

Time (CDT) Temp. Dew Point Humidity Pressure Visibility Wind Dir Wind Speed Gust Speed Precip Events Conditions
12:53 AM 69.1 °F 62.1 °F 78% 29.74 in 10.0 mi NNE 6.9 mph - N/A   Mostly Cloudy
1:53 AM 69.1 °F 55.0 °F 61% 29.74 in 10.0 mi NNW 6.9 mph - N/A   Clear
2:53 AM 66.9 °F 57.0 °F 70% 29.73 in 10.0 mi WNW 3.5 mph - N/A   Clear
3:53 AM 66.0 °F 57.9 °F 75% 29.72 in 10.0 mi Calm Calm - N/A   Clear
4:53 AM 64.9 °F 57.0 °F 75% 29.72 in 10.0 mi Calm Calm - N/A   Clear
5:53 AM 64.9 °F 57.9 °F 78% 29.72 in 10.0 mi Calm Calm - N/A   Clear
6:53 AM 71.1 °F 59.0 °F 66% 29.71 in 10.0 mi WNW 8.1 mph - N/A   Clear
7:53 AM 73.0 °F 57.9 °F 59% 29.70 in 10.0 mi WNW 12.7 mph - N/A   Clear
8:53 AM 75.9 °F 60.1 °F 58% 29.69 in 10.0 mi WNW 11.5 mph - N/A   Clear
9:53 AM 75.9 °F 59.0 °F 56% 29.67 in 10.0 mi NW 17.3 mph 25.3 mph N/A   Partly Cloudy
10:53 AM 73.0 °F 57.9 °F 59% 29.68 in 10.0 mi WNW 18.4 mph 24.2 mph N/A   Overcast
11:53 AM 72.0 °F 60.1 °F 66% 29.70 in 10.0 mi NW 17.3 mph 21.9 mph N/A   Overcast
12:53 PM 72.0 °F 64.0 °F 76% 29.71 in 10.0 mi NNW 10.4 mph - 0.01 in   Overcast
1:53 PM 75.0 °F 62.1 °F 64% 29.69 in 10.0 mi NW 12.7 mph 20.7 mph 0.00 in   Mostly Cloudy
2:53 PM 68.0 °F 63.0 °F 84% 29.69 in 3.0 mi NW 13.8 mph 32.2 mph 0.00 in Rain Rain
3:53 PM 78.1 °F 64.0 °F 62% 29.66 in 10.0 mi NW 12.7 mph - 0.02 in   Mostly Cloudy
4:53 PM 75.0 °F 63.0 °F 66% 29.66 in 10.0 mi NW 16.1 mph 23.0 mph 0.00 in   Mostly Cloudy
5:53 PM 77.0 °F 63.0 °F 62% 29.66 in 10.0 mi NW 15.0 mph 23.0 mph 0.00 in   Scattered Clouds
6:19 PM 78.8 °F 62.6 °F 57% 29.67 in 10.0 mi WNW 13.8 mph 20.7 mph N/A Thunderstorm Partly Cloudy
6:53 PM 71.1 °F 63.0 °F 75% 29.67 in 10.0 mi NNE 5.8 mph - 0.00 in Rain Light Rain
7:06 PM 69.8 °F 64.4 °F 83% 29.70 in 10.0 mi North 3.5 mph - 0.00 in Rain Light Rain
7:18 PM 71.6 °F 64.4 °F 78% 29.70 in 10.0 mi NW 5.8 mph - 0.00 in   Overcast
7:53 PM 70.0 °F 63.0 °F 78% 29.68 in 10.0 mi NNW 5.8 mph - 0.00 in   Mostly Cloudy
8:53 PM 68.0 °F 64.0 °F 87% 29.68 in 10.0 mi NW 10.4 mph - 0.01 in Rain Light Rain
9:53 PM 68.0 °F 63.0 °F 84% 29.68 in 10.0 mi NW 10.4 mph - 0.00 in   Partly Cloudy
10:53 PM 66.9 °F 63.0 °F 87% 29.69 in 10.0 mi NNW 5.8 mph - N/A   Scattered Clouds
11:19 PM 66.2 °F 62.6 °F 88% 29.71 in 10.0 mi NNW 8.1 mph - 0.00 in Rain Light Rain
11:37 PM 66.2 °F 62.6 °F 88% 29.71 in 10.0 mi NNW 8.1 mph - 0.00 in   Overcast
11:53 PM 66.9 °F 63.0 °F 87% 29.68 in 10.0 mi NNW 8.1 mph - 0.00 in   Overcast